Regional Weather Roundup
Issued by NWS

Home | Current Version | Previous Version | Graphics & Text | Print | Product List | Glossary Off
Versions: 1 2 3 4 5 6 7 8 9 10 11 12 13 14 15 16 17 18 19 20 21 22 23 24 25 26 27 28 29 30 31 32 33 34 35 36 37 38 39 40 41 42 43 44 45 46 47 48 49 50

000
ASUS43 KTOP 030959
RWRKS

WEATHER ROUNDUP FOR KANSAS
NATIONAL WEATHER SERVICE GOODLAND KS
500 AM CDT THU SEP 03 2015

NOTE:  "FAIR" INDICATES FEW OR NO CLOUDS BELOW 12,000 FEET WITH NO
SIGNIFICANT WEATHER AND/OR OBSTRUCTIONS TO VISIBILITY.

KSZ001>006-013>018-027>032-041>047-031100-
NORTHWEST KANSAS

CITY           SKY/WX    TMP DP  RH WIND       PRES   REMARKS
GOODLAND       CLEAR     66  56  70 SW8       29.87F
HAYS           PTCLDY    73  55  53 S9        29.86S
HILL CITY      PTCLDY    76  59  55 S9        29.83F
RUSSELL        PTCLDY    76  60  57 S17G24    29.84F
$$

KSZ061>065-074>080-084>089-031100-
SOUTHWEST KANSAS

CITY           SKY/WX    TMP DP  RH WIND       PRES   REMARKS
DODGE CITY     PTCLDY    71  56  58 S13       29.90S
ELKHART          N/A     70  52  53 SW10        N/A
GARDEN CITY    PTCLDY    67  57  70 S6        29.88S
GREAT BEND     CLEAR     73  59  60 S13       29.88S
LIBERAL        CLEAR     70  54  56 S9        29.91S
$$

KSZ066>073-081>083-090>101-031100-
SOUTHEAST KANSAS

CITY           SKY/WX    TMP DP  RH WIND       PRES   REMARKS
CHANUTE        CLEAR     70  67  90 SE7       29.96S
COFFEYVILLE    CLEAR     70  68  93 S6        29.96R
HUTCHINSON     CLEAR     73  61  65 S7        29.91S
NEWTON         CLEAR     72  57  60 S9        29.95S
PARSONS        CLEAR     71  68  90 SE3       29.97R
WICHITA INTL   PTCLDY    71  63  75 S8        29.92S
WICHITA JABRA  CLEAR     70  63  78 S7        29.93S
WINFIELD       CLEAR     71  64  78 S6        29.95R
$$

KSZ007>012-019>026-033>040-048>060-102>105-031100-
NORTHEAST KANSAS

CITY           SKY/WX    TMP DP  RH WIND       PRES   REMARKS
CONCORDIA      PTCLDY    75  62  64 S21       29.85S
EMPORIA        PTCLDY    71  66  84 S14       29.93R
LAWRENCE       CLEAR     73  67  81 E7        29.93R
MANHATTAN      MOCLDY    76  65  68 SW10      29.88F
OLATHE IND     PTCLDY    71  67  87 S8        29.95S
OLATHE EXE     CLEAR     70  67  90 S6        29.95S
SALINA         PTCLDY    77  62  59 S14       29.87S
TOPEKA BILLARD CLEAR     75  68  78 S6        29.91S
TOPEKA FORBES  CLEAR     74  68  81 S9        29.92S
$$



USA.gov is the U.S. government's official web portal to all federal, state and local government web resources and services.